Tracking 26955 objects as of 3-Feb-2023
HD Live streaming from Space Station
objects crossing your sky now

DELTA 1 DEB

Track DELTA 1 DEB now!
10-day predictions


NORAD ID: 26036
Int'l Code: 1975-052KA
Perigee: 682.5 km
Apogee: 851.4 km
Inclination: 100.0 °
Period: 100.0 minutes
Semi major axis: 7137 km
RCS: 0.0044 m2 (small)
Launch date: June 12, 1975
Source: United States (US)
Launch site: AIR FORCE WESTERN TEST RANGE (AFWTR)

Note: This is SATELLITE DEBRIS
Your satellite tracking list
Your tracking list is empty




NASA's NSSDC Master Catalog

Two Line Element Set (TLE):
1 26036U 75052KA  23033.38112515  .00007840  00000-0  23269-2 0  9996
2 26036  99.9729   3.5274 0118319  86.4660 275.0047 14.39590829254981
Source of the keplerian elements: AFSPC